| time (UTC) | temp C | wind direction | speed KPH | gust KPH | rain 1hr cm | rain 24hr cm | rain mn cm | humidity % | barometer mb |
| 20260510174604 | 7 | 0 | 0.0 | 1.6 | 0.00 | 0.00 | 0.00 | 91 | 1030.4 |
| 20260510173103 | 7 | 0 | 0.0 | 1.6 | 0.00 | 0.00 | 0.00 | 91 | 1030.5 |
| 20260510171603 | 8 | 0 | 0.0 | 3.2 | 0.00 | 0.00 | 0.00 | 90 | 1030.5 |
| 20260510164604 | 8 | 0 | 0.0 | 3.2 | 0.00 | 0.00 | 0.00 | 90 | 1030.4 |
| 20260510163104 | 8 | 129 | 1.6 | 3.2 | 0.00 | 0.00 | 0.00 | 90 | 1030.3 |
| 20260510161604 | 8 | 129 | 1.6 | 4.8 | 0.00 | 0.00 | 0.00 | 90 | 1030.4 |
| 20260510154604 | 8 | 129 | 0.0 | 4.8 | 0.00 | 0.00 | 0.00 | 89 | 1030.6 |
| 20260510153103 | 9 | 129 | 1.6 | 3.2 | 0.00 | 0.00 | 0.00 | 89 | 1030.6 |
| 20260510151604 | 9 | 129 | 1.6 | 3.2 | 0.00 | 0.00 | 0.00 | 89 | 1030.6 |
| 20260510144604 | 10 | 129 | 3.2 | 4.8 | 0.00 | 0.00 | 0.00 | 88 | 1030.3 |
| 20260510143104 | 10 | 129 | 1.6 | 6.4 | 0.00 | 0.00 | 0.00 | 88 | 1030.4 |
| 20260510141604 | 10 | 129 | 1.6 | 9.7 | 0.00 | 0.00 | 0.00 | 87 | 1030.5 |
| 20260510134604 | 10 | 129 | 1.6 | 9.7 | 0.00 | 0.00 | 0.00 | 87 | 1030.6 |
| 20260510133104 | 11 | 129 | 1.6 | 8.0 | 0.00 | 0.00 | 0.00 | 87 | 1030.7 |
| 20260510131604 | 11 | 129 | 0.0 | 6.4 | 0.00 | 0.00 | 0.00 | 86 | 1030.7 |
| 20260510130101 | 11 | 129 | 1.6 | 6.4 | 0.00 | 0.00 | 0.00 | 86 | 1030.7 |
| 20260510124603 | 11 | 0 | 0.0 | 6.4 | 0.00 | 0.00 | 0.00 | 85 | 1030.6 |
| 20260510123104 | 12 | 129 | 6.4 | 8.0 | 0.00 | 0.00 | 0.00 | 84 | 1030.7 |
| 20260510121603 | 12 | 129 | 1.6 | 8.0 | 0.00 | 0.00 | 0.00 | 82 | 1030.7 |
| 20260510114604 | 13 | 129 | 1.6 | 6.4 | 0.00 | 0.00 | 0.00 | 81 | 1030.7 |
| 20260510113104 | 13 | 0 | 0.0 | 3.2 | 0.00 | 0.00 | 0.00 | 80 | 1030.5 |
| 20260510111603 | 13 | 0 | 0.0 | 4.8 | 0.00 | 0.00 | 0.00 | 80 | 1030.4 |
| 20260510104604 | 14 | 0 | 0.0 | 3.2 | 0.00 | 0.00 | 0.00 | 81 | 1030.3 |
| 20260510103104 | 14 | 129 | 1.6 | 3.2 | 0.00 | 0.00 | 0.00 | 82 | 1030.3 |
| 20260510101604 | 14 | 129 | 0.0 | 1.6 | 0.00 | 0.00 | 0.00 | 84 | 1030.0 |
| 20260510094604 | 13 | 0 | 0.0 | 0.0 | 0.00 | 0.00 | 0.00 | 88 | 1029.8 |
| 20260510093104 | 13 | 0 | 0.0 | 0.0 | 0.00 | 0.00 | 0.00 | 85 | 1029.7 |
| 20260510091604 | 14 | 0 | 0.0 | 0.0 | 0.00 | 0.00 | 0.00 | 85 | 1029.6 |
| 20260510084603 | 15 | 0 | 0.0 | 0.0 | 0.00 | 0.00 | 0.00 | 80 | 1029.3 |
| 20260510083103 | 16 | 0 | 0.0 | 0.0 | 0.00 | 0.00 | 0.00 | 78 | 1029.0 |
| 20260510081603 | 16 | 0 | 0.0 | 0.0 | 0.00 | 0.00 | 0.00 | 76 | 1028.9 |
| 20260510074604 | 17 | 0 | 0.0 | 1.6 | 0.00 | 0.00 | 0.00 | 74 | 1028.5 |
| 20260510073104 | 18 | 0 | 0.0 | 3.2 | 0.00 | 0.00 | 0.00 | 72 | 1028.5 |
| 20260510071604 | 18 | 0 | 0.0 | 3.2 | 0.00 | 0.00 | 0.00 | 71 | 1028.6 |
| 20260510064604 | 18 | 129 | 0.0 | 6.4 | 0.00 | 0.00 | 0.00 | 69 | 1028.5 |
| 20260510063104 | 19 | 129 | 0.0 | 4.8 | 0.00 | 0.00 | 0.00 | 68 | 1028.4 |
| 20260510061605 | 19 | 129 | 3.2 | 9.7 | 0.00 | 0.00 | 0.00 | 68 | 1028.4 |
| 20260510060101 | 19 | 129 | 4.8 | 8.0 | 0.00 | 0.00 | 0.00 | 69 | 1028.3 |
| 20260510054603 | 19 | 129 | 0.0 | 8.0 | 0.00 | 0.00 | 0.00 | 68 | 1028.3 |
| 20260510053103 | 20 | 129 | 6.4 | 9.7 | 0.00 | 0.00 | 0.00 | 67 | 1028.4 |
| 20260510051604 | 20 | 129 | 0.0 | 9.7 | 0.00 | 0.00 | 0.00 | 67 | 1028.3 |
| 20260510044604 | 20 | 129 | 6.4 | 6.4 | 0.00 | 0.00 | 0.00 | 68 | 1028.1 |
| 20260510043104 | 18 | 0 | 0.0 | 8.0 | 0.00 | 0.00 | 0.00 | 70 | 1028.4 |
| 20260510041604 | 18 | 129 | 4.8 | 8.0 | 0.00 | 0.00 | 0.00 | 71 | 1028.4 |
| 20260510034603 | 18 | 129 | 1.6 | 9.7 | 0.00 | 0.00 | 0.00 | 73 | 1028.5 |
| 20260510033103 | 18 | 129 | 4.8 | 9.7 | 0.00 | 0.00 | 0.00 | 74 | 1028.6 |
| 20260510031604 | 17 | 129 | 1.6 | 9.7 | 0.00 | 0.00 | 0.00 | 75 | 1028.8 |
| 20260510024604 | 17 | 129 | 4.8 | 11.3 | 0.00 | 0.00 | 0.00 | 77 | 1029.0 |
| 20260510023104 | 17 | 129 | 1.6 | 14.5 | 0.00 | 0.00 | 0.00 | 77 | 1029.1 |
| 20260510021604 | 17 | 129 | 6.4 | 9.7 | 0.00 | 0.00 | 0.00 | 78 | 1029.4 |
| 20260510014604 | 16 | 129 | 6.4 | 14.5 | 0.00 | 0.00 | 0.00 | 79 | 1029.8 |
| 20260510013104 | 16 | 129 | 3.2 | 16.1 | 0.00 | 0.00 | 0.00 | 79 | 1029.9 |
| 20260510011604 | 16 | 129 | 6.4 | 14.5 | 0.00 | 0.00 | 0.00 | 80 | 1030.1 |
| 20260510004603 | 15 | 129 | 3.2 | 12.9 | 0.00 | 0.00 | 0.00 | 84 | 1030.3 |
| 20260510003103 | 14 | 129 | 6.4 | 11.3 | 0.00 | 0.00 | 0.00 | 85 | 1030.3 |
| 20260510001603 | 14 | 129 | 3.2 | 12.9 | 0.00 | 0.00 | 0.00 | 86 | 1030.2 |
| 20260509234604 | 12 | 129 | 3.2 | 12.9 | 0.00 | 0.00 | 0.00 | 90 | 1030.1 |
| 20260509233104 | 12 | 129 | 4.8 | 12.9 | 0.00 | 0.00 | 0.00 | 91 | 1030.1 |
| 20260509231603 | 11 | 129 | 4.8 | 12.9 | 0.00 | 0.00 | 0.00 | 93 | 1030.2 |
| 20260509224604 | 10 | 129 | 4.8 | 8.0 | 0.00 | 0.00 | 0.00 | 96 | 1029.9 |
| 20260509223104 | 10 | 129 | 1.6 | 3.2 | 0.00 | 0.00 | 0.00 | 96 | 1030.0 |
| 20260509221604 | 9 | 0 | 0.0 | 3.2 | 0.00 | 0.00 | 0.00 | 96 | 1029.7 |
| 20260509214604 | 8 | 0 | 0.0 | 0.0 | 0.00 | 0.00 | 0.00 | 96 | 1029.4 |
| 20260509213104 | 7 | 0 | 0.0 | 1.6 | 0.00 | 0.00 | 0.00 | 96 | 1029.3 |
| 20260509211604 | 7 | 0 | 0.0 | 0.0 | 0.00 | 0.00 | 0.00 | 95 | 1029.2 |
| 20260509204604 | 8 | 0 | 0.0 | 0.0 | 0.00 | 0.00 | 0.00 | 95 | 1029.0 |
| 20260509203104 | 8 | 0 | 0.0 | 1.6 | 0.00 | 0.00 | 0.00 | 95 | 1028.9 |
| 20260509201603 | 8 | 0 | 0.0 | 0.0 | 0.00 | 0.00 | 0.00 | 95 | 1028.8 |
| 20260509194604 | 8 | 0 | 0.0 | 1.6 | 0.00 | 0.00 | 0.00 | 95 | 1028.4 |
| 20260509193104 | 8 | 0 | 0.0 | 1.6 | 0.00 | 0.00 | 0.00 | 95 | 1028.1 |
| 20260509191604 | 8 | 0 | 0.0 | 0.0 | 0.00 | 0.00 | 0.00 | 95 | 1028.0 |
| 20260509184604 | 8 | 0 | 0.0 | 1.6 | 0.00 | 0.00 | 0.00 | 95 | 1028.0 |
| 20260509183103 | 8 | 0 | 0.0 | 0.0 | 0.00 | 0.00 | 0.00 | 95 | 1027.8 |
| 20260509181603 | 8 | 0 | 0.0 | 0.0 | 0.00 | 0.00 | 0.00 | 95 | 1027.7 |